Location: Newark
(56.0692°N, 115.8617°E)
Time: 08:01:09
(UTC+00:00)

SR - All Passes

Search period start: 26 May 2020 00:00
Search period end: 05 June 2020 00:00
Orbit: 581 x 874 km, 66.7° (Epoch: 25 May)

Date Brightness Start Highest point End Pass type
(mag) Time Alt. Az. Time Alt. Az. Time Alt. Az.
26 May - 07:42:18 10° SSE 07:45:46 18° ESE 07:49:05 10° ENE daylight
26 May - 09:21:59 10° SW 09:27:13 76° SE 09:32:02 10° NE daylight
26 May - 11:04:59 10° W 11:09:40 36° NNW 11:14:00 10° NE daylight
26 May - 12:49:04 10° NW 12:52:53 22° N 12:56:30 10° NE daylight
26 May - 14:32:08 10° NW 14:36:14 30° NNE 14:40:07 10° E visible
26 May - 16:14:17 10° NW 16:18:51 88° NE 16:23:09 10° SE visible
26 May - 17:57:12 10° WNW 18:00:15 18° WSW 18:03:12 10° SSW visible
27 May - 08:32:35 10° SSW 08:37:37 47° SE 08:42:15 10° NE daylight
27 May - 10:14:44 10° WSW 10:19:43 49° NW 10:24:19 10° NE daylight
27 May - 11:58:42 10° WNW 12:02:44 24° NNW 12:06:30 10° NE daylight
27 May - 13:42:15 10° NW 13:46:08 25° NNE 13:49:48 10° ENE visible
27 May - 15:24:34 10° NW 15:29:05 55° NE 15:33:19 10° ESE visible
27 May - 17:06:56 10° NW 17:10:55 32° WSW 17:14:43 10° S visible
28 May - 07:43:41 10° S 07:48:07 28° ESE 07:52:17 10° ENE daylight
28 May - 09:24:42 10° SW 09:29:53 73° NW 09:34:39 10° NE daylight
28 May - 11:08:17 10° W 11:12:37 29° NNW 11:16:39 10° NE daylight
28 May - 12:52:13 10° NW 12:55:58 22° N 12:59:32 10° ENE daylight
28 May - 14:34:51 10° NW 14:39:09 38° NNE 14:43:13 10° E visible
28 May - 16:17:00 10° NW 16:21:25 57° SW 16:25:36 10° SSE visible
28 May - 18:01:42 10° W 18:02:25 10° WSW 18:03:07 10° WSW visible
29 May - 06:55:29 10° SSE 06:58:45 17° ESE 07:01:54 10° ENE daylight
29 May - 08:34:58 10° SSW 08:40:10 73° SE 08:44:57 10° NE daylight
29 May - 10:17:54 10° W 10:22:34 37° NNW 10:26:54 10° NE daylight
29 May - 12:02:00 10° WNW 12:05:47 22° N 12:09:22 10° NE daylight
29 May - 13:45:05 10° NW 13:49:08 29° NNE 13:52:58 10° E visible
29 May - 15:27:15 10° NW 15:31:46 84° NE 15:36:04 10° SE visible
29 May - 17:10:04 10° WNW 17:13:13 19° WSW 17:16:16 10° SSW visible
30 May - 07:45:37 10° SSW 07:50:34 44° ESE 07:55:09 10° NE daylight
30 May - 09:27:40 10° WSW 09:32:38 51° NW 09:37:14 10° NE daylight
30 May - 11:11:37 10° WNW 11:15:37 24° NNW 11:19:23 10° NE daylight
30 May - 12:55:11 10° NW 12:59:01 24° NNE 13:02:39 10° ENE daylight
30 May - 14:37:31 10° NW 14:41:59 53° NE 14:46:12 10° ESE visible
30 May - 16:19:51 10° NW 16:23:51 34° WSW 16:27:43 10° S visible
31 May - 06:56:46 10° S 07:01:05 27° ESE 07:05:09 10° ENE daylight
31 May - 08:37:39 10° SW 08:42:49 76° NW 08:47:34 10° NE daylight
31 May - 10:21:11 10° W 10:25:30 29° NNW 10:29:33 10° NE daylight
31 May - 12:05:08 10° NW 12:08:51 22° N 12:12:23 10° NE daylight
31 May - 13:47:48 10° NW 13:52:04 36° NNE 13:56:05 10° E visible
31 May - 15:29:57 10° NW 15:34:21 61° SW 15:38:33 10° SSE visible
31 May - 17:14:12 10° W 17:15:24 11° WSW 17:16:35 10° WSW visible
01 Jun - 06:08:40 10° SSE 06:11:44 16° ESE 06:14:41 10° ENE daylight
01 Jun - 07:47:57 10° SSW 07:53:07 69° SE 07:57:51 10° NE daylight
01 Jun - 09:30:49 10° W 09:35:29 37° NNW 09:39:49 10° NE daylight
01 Jun - 11:14:54 10° WNW 11:18:40 22° N 11:22:15 10° NE daylight
01 Jun - 12:58:01 10° NW 13:02:02 28° NNE 13:05:49 10° E daylight
01 Jun - 14:40:11 10° NW 14:44:41 80° NE 14:48:58 10° SE visible
01 Jun - 16:22:57 10° WNW 16:26:10 20° WSW 16:29:19 10° SSW visible
02 Jun - 06:58:39 10° SSW 07:03:31 42° ESE 07:08:03 10° NE daylight
02 Jun - 08:40:36 10° WSW 08:45:34 53° NW 08:50:09 10° NE daylight
02 Jun - 10:24:31 10° WNW 10:28:30 25° NNW 10:32:16 10° NE daylight
02 Jun - 12:08:08 10° NW 12:11:54 24° NNE 12:15:30 10° ENE daylight
02 Jun - 13:50:28 10° NW 13:54:53 51° NE 13:59:05 10° ESE visible
02 Jun - 15:32:46 10° NW 15:36:48 36° WSW 15:40:42 10° S visible
03 Jun - 06:09:51 10° S 06:14:03 25° ESE 06:18:01 10° ENE daylight
03 Jun - 07:50:37 10° SW 07:55:45 79° NW 08:00:28 10° NE daylight
03 Jun - 09:34:06 10° W 09:38:24 29° NNW 09:42:27 10° NE daylight
03 Jun - 11:18:03 10° NW 11:21:44 22° N 11:25:14 10° NE daylight
03 Jun - 13:00:45 10° NW 13:04:57 35° NNE 13:08:57 10° E daylight
03 Jun - 14:42:52 10° NW 14:47:17 64° SW 14:51:29 10° SSE visible
03 Jun - 16:26:50 10° W 16:28:22 12° WSW 16:29:53 10° SW visible
04 Jun - 05:21:52 10° SE 05:24:44 15° ESE 05:27:28 10° ENE daylight
04 Jun - 07:00:57 10° SSW 07:06:04 66° SE 07:10:45 10° NE daylight
04 Jun - 08:43:43 10° W 08:48:24 38° NNW 08:52:44 10° NE daylight
04 Jun - 10:27:48 10° WNW 10:31:33 22° N 10:35:07 10° NE daylight
04 Jun - 12:10:58 10° NW 12:14:55 27° NNE 12:18:40 10° E daylight
04 Jun - 13:53:07 10° NW 13:57:37 77° NE 14:01:53 10° SE visible
04 Jun - 15:35:49 10° WNW 15:39:08 21° WSW 15:42:22 10° SSW visible
